Time,TemperatureF,DewpointF,PressureIn,WindDirection,WindDirectionDegrees,WindSpeedMPH,WindSpeedGustMPH,Humidity,HourlyPrecipIn,Conditions,Clouds,dailyrainin,SoftwareType,DateUTC
2013-07-11 00:01:00,54.8,49.4,29.89,NNW,347,0.0,0.0,82,0.00,CLR,,0.00,WeatherDisplay:10.37,2013-07-11 08:01:00,
2013-07-11 00:06:00,54.4,49.0,29.89,NNW,347,0.0,0.0,82,0.00,CLR,,0.00,WeatherDisplay:10.37,2013-07-11 08:06:00,
2013-07-11 00:11:00,54.0,49.0,29.89,NNW,347,0.0,0.0,83,0.00,CLR,,0.00,WeatherDisplay:10.37,2013-07-11 08:11:00,
2013-07-11 00:16:00,53.9,48.9,29.89,NNW,347,0.0,0.0,83,0.00,CLR,,0.00,WeatherDisplay:10.37,2013-07-11 08:16:00,
2013-07-11 00:21:00,53.9,48.9,29.89,NNW,347,0.0,0.0,83,0.00,CLR,,0.00,WeatherDisplay:10.37,2013-07-11 08:21:00,
2013-07-11 00:26:00,53.9,48.9,29.89,NNW,347,0.0,0.0,83,0.00,CLR,,0.00,WeatherDisplay:10.37,2013-07-11 08:26:00,
2013-07-11 00:31:00,53.6,48.6,29.89,NNW,347,0.0,0.0,83,0.00,CLR,,0.00,WeatherDisplay:10.37,2013-07-11 08:31:00,
2013-07-11 00:36:00,53.5,48.8,29.89,NNW,347,0.0,0.0,84,0.00,CLR,,0.00,WeatherDisplay:10.37,2013-07-11 08:36:00,
2013-07-11 00:41:00,53.6,48.9,29.89,NNW,347,0.0,0.0,84,0.00,CLR,,0.00,WeatherDisplay:10.37,2013-07-11 08:41:00,
2013-07-11 00:46:00,53.6,48.6,29.89,NNW,347,0.0,0.0,83,0.00,CLR,,0.00,WeatherDisplay:10.37,2013-07-11 08:46:00,
2013-07-11 00:51:00,53.4,48.7,29.89,NNW,347,0.0,0.0,84,0.00,CLR,,0.00,WeatherDisplay:10.37,2013-07-11 08:51:00,
2013-07-11 00:56:00,53.3,48.6,29.89,NNW,347,0.0,0.0,84,0.00,CLR,,0.00,WeatherDisplay:10.37,2013-07-11 08:56:00,
2013-07-11 01:01:00,53.2,48.5,29.89,NNW,347,0.0,0.0,84,0.00,CLR,,0.00,WeatherDisplay:10.37,2013-07-11 09:01:00,
2013-07-11 01:06:00,53.1,48.4,29.89,NNW,347,0.0,0.0,84,0.00,CLR,,0.00,WeatherDisplay:10.37,2013-07-11 09:06:00,
2013-07-11 01:11:00,52.9,48.5,29.90,NNW,347,0.0,0.0,85,0.00,CLR,,0.00,WeatherDisplay:10.37,2013-07-11 09:11:00,
2013-07-11 01:16:00,52.6,48.5,29.90,NNW,347,0.0,0.0,86,0.00,CLR,,0.00,WeatherDisplay:10.37,2013-07-11 09:16:00,
2013-07-11 01:21:00,52.5,48.4,29.90,NNW,347,0.0,0.0,86,0.00,CLR,,0.00,WeatherDisplay:10.37,2013-07-11 09:21:00,
2013-07-11 01:26:00,52.8,48.7,29.90,NNW,347,0.0,0.0,86,0.00,CLR,,0.00,WeatherDisplay:10.37,2013-07-11 09:26:00,
2013-07-11 01:31:00,52.9,48.5,29.90,NNW,347,0.0,0.0,85,0.00,CLR,,0.00,WeatherDisplay:10.37,2013-07-11 09:31:00,
2013-07-11 01:36:00,52.6,48.2,29.90,NNW,347,0.0,0.0,85,0.00,CLR,,0.00,WeatherDisplay:10.37,2013-07-11 09:36:00,
2013-07-11 01:41:00,52.5,48.4,29.90,NNW,347,0.0,0.0,86,0.00,CLR,,0.00,WeatherDisplay:10.37,2013-07-11 09:41:00,
2013-07-11 01:46:00,52.3,48.2,29.90,NNW,347,0.0,0.0,86,0.00,CLR,,0.00,WeatherDisplay:10.37,2013-07-11 09:46:00,
2013-07-11 01:51:00,52.2,48.1,29.90,NNW,347,0.0,0.0,86,0.00,CLR,,0.00,WeatherDisplay:10.37,2013-07-11 09:51:00,
2013-07-11 01:56:00,52.2,48.1,29.90,NNW,347,0.0,0.0,86,0.00,CLR,,0.00,WeatherDisplay:10.37,2013-07-11 09:56:00,
2013-07-11 02:01:00,52.1,48.3,29.90,NNW,347,0.0,0.0,87,0.00,CLR,,0.00,WeatherDisplay:10.37,2013-07-11 10:01:00,
2013-07-11 02:06:00,51.9,48.2,29.90,NNW,347,0.0,0.0,87,0.00,CLR,,0.00,WeatherDisplay:10.37,2013-07-11 10:06:00,
2013-07-11 02:11:00,51.9,48.2,29.90,NNW,347,0.0,0.0,87,0.00,CLR,,0.00,WeatherDisplay:10.37,2013-07-11 10:11:00,
2013-07-11 02:16:00,51.8,48.1,29.90,NNW,347,0.0,0.0,87,0.00,CLR,,0.00,WeatherDisplay:10.37,2013-07-11 10:16:00,
2013-07-11 02:21:00,51.8,48.1,29.90,NNW,347,0.0,0.0,87,0.00,CLR,,0.00,WeatherDisplay:10.37,2013-07-11 10:21:00,
2013-07-11 02:26:00,52.0,47.9,29.90,NNW,347,0.0,0.0,86,0.00,CLR,,0.00,WeatherDisplay:10.37,2013-07-11 10:26:00,
2013-07-11 02:31:00,52.3,47.9,29.90,NNW,347,0.0,0.0,85,0.00,CLR,,0.00,WeatherDisplay:10.37,2013-07-11 10:31:00,
2013-07-11 02:36:00,52.5,47.8,29.90,NNW,347,0.0,0.0,84,0.00,CLR,,0.00,WeatherDisplay:10.37,2013-07-11 10:36:00,
2013-07-11 02:41:00,52.7,48.0,29.90,NNW,347,0.0,0.0,84,0.00,CLR,,0.00,WeatherDisplay:10.37,2013-07-11 10:41:00,
2013-07-11 02:46:00,52.7,47.7,29.90,NNW,347,0.0,0.0,83,0.00,CLR,,0.00,WeatherDisplay:10.37,2013-07-11 10:46:00,
2013-07-11 02:51:00,53.0,47.7,29.90,NNW,347,0.0,0.0,82,0.00,CLR,,0.00,WeatherDisplay:10.37,2013-07-11 10:51:00,
2013-07-11 02:56:00,53.3,47.9,29.90,NNW,347,0.0,0.0,82,0.00,CLR,,0.00,WeatherDisplay:10.37,2013-07-11 10:56:00,
2013-07-11 03:01:00,53.7,48.0,29.90,NNW,347,0.0,0.0,81,0.00,CLR,,0.00,WeatherDisplay:10.37,2013-07-11 11:01:00,
2013-07-11 03:06:00,53.9,47.9,29.90,NNW,347,0.0,0.0,80,0.00,CLR,,0.00,WeatherDisplay:10.37,2013-07-11 11:06:00,
2013-07-11 03:11:00,54.3,47.9,29.90,NNW,347,0.0,0.0,79,0.00,CLR,,0.00,WeatherDisplay:10.37,2013-07-11 11:11:00,
2013-07-11 03:16:00,54.8,48.1,29.90,NNW,347,0.0,0.0,78,0.00,CLR,,0.00,WeatherDisplay:10.37,2013-07-11 11:16:00,
2013-07-11 03:21:00,54.8,48.1,29.90,NNW,347,0.0,0.0,78,0.00,CLR,,0.00,WeatherDisplay:10.37,2013-07-11 11:21:00,
2013-07-11 03:26:00,54.9,47.8,29.90,NNW,347,0.0,0.0,77,0.00,CLR,,0.00,WeatherDisplay:10.37,2013-07-11 11:26:00,
2013-07-11 03:31:00,55.1,48.0,29.90,NNW,347,0.0,0.0,77,0.00,CLR,,0.00,WeatherDisplay:10.37,2013-07-11 11:31:00,
2013-07-11 03:36:00,55.1,48.0,29.90,NNW,347,0.0,0.0,77,0.00,CLR,,0.00,WeatherDisplay:10.37,2013-07-11 11:36:00,
2013-07-11 03:41:00,55.1,48.0,29.90,NNW,347,0.0,0.0,77,0.00,CLR,,0.00,WeatherDisplay:10.37,2013-07-11 11:41:00,
2013-07-11 03:46:00,55.1,47.7,29.90,NNW,347,0.0,0.0,76,0.00,CLR,,0.00,WeatherDisplay:10.37,2013-07-11 11:46:00,
2013-07-11 03:51:00,55.4,48.0,29.90,NNW,347,0.0,0.0,76,0.00,CLR,,0.00,WeatherDisplay:10.37,2013-07-11 11:51:00,
2013-07-11 03:56:00,55.8,47.6,29.90,NNW,347,0.0,0.0,74,0.00,CLR,,0.00,WeatherDisplay:10.37,2013-07-11 11:56:00,
2013-07-11 04:01:00,56.1,47.6,29.90,NNW,347,0.0,0.0,73,0.00,CLR,,0.00,WeatherDisplay:10.37,2013-07-11 12:01:00,
2013-07-11 04:06:00,56.4,47.5,29.90,NNW,347,0.0,0.0,72,0.00,CLR,,0.00,WeatherDisplay:10.37,2013-07-11 12:06:00,
2013-07-11 04:11:00,56.6,47.7,29.90,NNW,347,0.0,0.0,72,0.00,CLR,,0.00,WeatherDisplay:10.37,2013-07-11 12:11:00,
2013-07-11 04:16:00,56.8,47.9,29.90,NNW,347,0.0,0.0,72,0.00,CLR,,0.00,WeatherDisplay:10.37,2013-07-11 12:16:00,
2013-07-11 04:21:00,56.8,47.9,29.90,NNW,347,0.0,0.0,72,0.00,CLR,,0.00,WeatherDisplay:10.37,2013-07-11 12:21:00,
2013-07-11 04:26:00,56.8,47.5,29.90,NNW,347,0.0,0.0,71,0.00,CLR,,0.00,WeatherDisplay:10.37,2013-07-11 12:26:00,
2013-07-11 04:31:00,56.8,47.5,29.90,NNW,347,0.0,0.0,71,0.00,CLR,,0.00,WeatherDisplay:10.37,2013-07-11 12:31:00,
2013-07-11 04:36:00,56.8,47.5,29.90,NNW,347,0.0,0.0,71,0.00,CLR,,0.00,WeatherDisplay:10.37,2013-07-11 12:36:00,
2013-07-11 04:41:00,56.7,47.4,29.90,NNW,347,0.0,0.0,71,0.00,CLR,,0.00,WeatherDisplay:10.37,2013-07-11 12:41:00,
2013-07-11 04:46:00,56.6,47.3,29.90,NNW,347,0.0,0.0,71,0.00,CLR,,0.00,WeatherDisplay:10.37,2013-07-11 12:46:00,
2013-07-11 04:51:00,56.4,47.5,29.90,NNW,347,0.0,0.0,72,0.00,CLR,,0.00,WeatherDisplay:10.37,2013-07-11 12:51:00,
2013-07-11 04:56:00,56.2,47.3,29.90,NNW,347,0.0,0.0,72,0.00,CLR,,0.00,WeatherDisplay:10.37,2013-07-11 12:56:00,
2013-07-11 05:01:00,56.0,47.5,29.90,NNW,347,0.0,0.0,73,0.00,CLR,,0.00,WeatherDisplay:10.37,2013-07-11 13:01:00,
2013-07-11 05:06:00,55.9,47.4,29.89,NNW,347,0.0,0.0,73,0.00,CLR,,0.00,WeatherDisplay:10.37,2013-07-11 13:06:00,
2013-07-11 05:11:00,55.7,47.2,29.90,NNW,347,0.0,0.0,73,0.00,CLR,,0.00,WeatherDisplay:10.37,2013-07-11 13:11:00,
2013-07-11 05:16:00,55.4,46.9,29.90,NNW,347,0.0,0.0,73,0.00,CLR,,0.00,WeatherDisplay:10.37,2013-07-11 13:16:00,
2013-07-11 05:21:00,55.1,47.0,29.90,NNW,347,0.0,0.0,74,0.00,CLR,,0.00,WeatherDisplay:10.37,2013-07-11 13:21:00,
2013-07-11 05:26:00,54.9,47.1,29.90,NNW,347,0.0,0.0,75,0.00,CLR,,0.00,WeatherDisplay:10.37,2013-07-11 13:26:00,
2013-07-11 05:31:00,54.8,47.0,29.90,NNW,347,0.0,0.0,75,0.00,CLR,,0.00,WeatherDisplay:10.37,2013-07-11 13:31:00,
2013-07-11 05:36:00,54.7,46.9,29.90,NNW,347,0.0,0.0,75,0.00,CLR,,0.00,WeatherDisplay:10.37,2013-07-11 13:36:00,
2013-07-11 05:41:00,54.7,46.9,29.90,NNW,347,0.0,0.0,75,0.00,CLR,,0.00,WeatherDisplay:10.37,2013-07-11 13:41:00,
2013-07-11 05:46:00,54.6,46.8,29.90,NNW,347,0.0,0.0,75,0.00,CLR,,0.00,WeatherDisplay:10.37,2013-07-11 13:46:00,
2013-07-11 05:51:00,54.4,47.0,29.90,NNW,347,0.0,0.0,76,0.00,CLR,,0.00,WeatherDisplay:10.37,2013-07-11 13:51:00,
2013-07-11 05:56:00,54.2,46.8,29.90,NNW,347,0.0,0.0,76,0.00,CLR,,0.00,WeatherDisplay:10.37,2013-07-11 13:56:00,
2013-07-11 06:01:00,54.0,47.0,29.90,NNW,347,0.0,0.0,77,0.00,CLR,,0.00,WeatherDisplay:10.37,2013-07-11 14:01:00,
2013-07-11 06:06:00,54.0,47.0,29.90,NNW,347,0.0,0.0,77,0.00,CLR,,0.00,WeatherDisplay:10.37,2013-07-11 14:06:00,
2013-07-11 06:11:00,53.9,46.9,29.90,NNW,347,0.0,0.0,77,0.00,CLR,,0.00,WeatherDisplay:10.37,2013-07-11 14:11:00,
2013-07-11 06:16:00,54.1,47.0,29.90,NNW,347,0.0,0.0,77,0.00,CLR,,0.00,WeatherDisplay:10.37,2013-07-11 14:16:00,
2013-07-11 06:21:00,54.3,46.9,29.90,NNW,347,0.0,0.0,76,0.00,CLR,,0.00,WeatherDisplay:10.37,2013-07-11 14:21:00,
2013-07-11 06:26:00,54.6,47.5,29.90,NNW,347,0.0,0.0,77,0.00,CLR,,0.00,WeatherDisplay:10.37,2013-07-11 14:26:00,
2013-07-11 06:31:00,54.9,47.1,29.90,NNW,347,0.0,0.0,75,0.00,CLR,,0.00,WeatherDisplay:10.37,2013-07-11 14:31:00,
2013-07-11 06:36:00,55.2,47.4,29.90,NNW,347,0.0,0.0,75,0.00,CLR,,0.00,WeatherDisplay:10.37,2013-07-11 14:36:00,
2013-07-11 06:41:00,55.5,47.7,29.90,NNW,347,0.0,0.0,75,0.00,CLR,,0.00,WeatherDisplay:10.37,2013-07-11 14:41:00,
2013-07-11 06:46:00,55.7,47.5,29.90,NNW,347,0.0,0.0,74,0.00,CLR,,0.00,WeatherDisplay:10.37,2013-07-11 14:46:00,
2013-07-11 06:51:00,56.1,47.6,29.90,NNW,347,0.0,0.0,73,0.00,CLR,,0.00,WeatherDisplay:10.37,2013-07-11 14:51:00,
2013-07-11 06:56:00,56.8,47.9,29.90,NNW,347,0.0,0.0,72,0.00,CLR,,0.00,WeatherDisplay:10.37,2013-07-11 14:56:00,
2013-07-11 07:01:00,57.2,47.9,29.90,NNW,347,0.0,0.0,71,0.00,CLR,,0.00,WeatherDisplay:10.37,2013-07-11 15:01:00,
2013-07-11 07:06:00,57.0,47.7,29.90,NNW,347,0.0,0.0,71,0.00,CLR,,0.00,WeatherDisplay:10.37,2013-07-11 15:06:00,
2013-07-11 07:11:00,56.4,47.5,29.90,NNW,347,0.0,0.0,72,0.00,CLR,,0.00,WeatherDisplay:10.37,2013-07-11 15:11:00,
2013-07-11 07:16:00,56.3,47.8,29.90,NNW,347,0.0,0.0,73,0.00,CLR,,0.00,WeatherDisplay:10.37,2013-07-11 15:16:00,
2013-07-11 07:21:00,56.4,47.9,29.89,NNW,347,0.0,0.0,73,0.00,CLR,,0.00,WeatherDisplay:10.37,2013-07-11 15:21:00,
2013-07-11 07:26:00,56.8,47.9,29.89,NNW,347,0.0,0.0,72,0.00,CLR,,0.00,WeatherDisplay:10.37,2013-07-11 15:26:00,
2013-07-11 07:31:00,57.1,47.8,29.89,NNW,347,0.0,0.0,71,0.00,CLR,,0.00,WeatherDisplay:10.37,2013-07-11 15:31:00,
2013-07-11 07:36:00,57.4,48.1,29.89,NNW,347,0.0,0.0,71,0.00,CLR,,0.00,WeatherDisplay:10.37,2013-07-11 15:36:00,
2013-07-11 07:41:00,57.6,47.9,29.89,NNW,347,0.0,0.0,70,0.00,CLR,,0.00,WeatherDisplay:10.37,2013-07-11 15:41:00,
2013-07-11 07:46:00,57.6,47.9,29.89,NNW,347,0.0,0.0,70,0.00,CLR,,0.00,WeatherDisplay:10.37,2013-07-11 15:46:00,
2013-07-11 07:52:00,57.8,48.5,29.89,NNW,347,0.0,0.0,71,0.00,CLR,,0.00,WeatherDisplay:10.37,2013-07-11 15:52:00,
2013-07-11 07:57:00,58.0,49.0,29.89,NNW,347,0.0,0.0,72,0.00,CLR,,0.00,WeatherDisplay:10.37,2013-07-11 15:57:00,
2013-07-11 08:02:00,58.3,48.2,29.89,NNW,347,0.0,0.0,69,0.00,CLR,,0.00,WeatherDisplay:10.37,2013-07-11 16:02:00,
2013-07-11 08:07:00,58.5,48.4,29.89,NNW,347,0.0,0.0,69,0.00,CLR,,0.00,WeatherDisplay:10.37,2013-07-11 16:07:00,
2013-07-11 08:12:00,58.6,48.5,29.89,NNW,347,0.0,0.0,69,0.00,CLR,,0.00,WeatherDisplay:10.37,2013-07-11 16:12:00,
2013-07-11 08:17:00,58.8,48.6,29.89,NNW,347,0.0,0.0,69,0.00,CLR,,0.00,WeatherDisplay:10.37,2013-07-11 16:17:00,
2013-07-11 08:22:00,59.0,48.8,29.89,NNW,347,0.0,0.0,69,0.00,CLR,,0.00,WeatherDisplay:10.37,2013-07-11 16:22:00,
2013-07-11 08:27:00,59.5,48.5,29.89,NNW,347,0.0,0.0,67,0.00,CLR,,0.00,WeatherDisplay:10.37,2013-07-11 16:27:00,
2013-07-11 08:32:00,59.9,48.5,29.89,NNW,347,0.0,0.0,66,0.00,CLR,,0.00,WeatherDisplay:10.37,2013-07-11 16:32:00,
2013-07-11 08:37:00,60.3,48.9,29.89,NNW,347,0.0,0.0,66,0.00,CLR,,0.00,WeatherDisplay:10.37,2013-07-11 16:37:00,
2013-07-11 08:42:00,60.8,49.0,29.89,NNW,347,0.0,0.0,65,0.00,CLR,,0.00,WeatherDisplay:10.37,2013-07-11 16:42:00,
2013-07-11 08:47:00,61.4,49.5,29.89,NNW,347,0.0,0.0,65,0.00,CLR,,0.00,WeatherDisplay:10.37,2013-07-11 16:47:00,
2013-07-11 08:52:00,61.8,49.1,29.89,NNW,348,0.0,0.0,63,0.00,CLR,,0.00,WeatherDisplay:10.37,2013-07-11 16:52:00,
2013-07-11 08:57:00,62.2,49.4,29.89,NNW,348,0.0,0.0,63,0.00,CLR,,0.00,WeatherDisplay:10.37,2013-07-11 16:57:00,
2013-07-11 09:02:00,62.5,49.3,29.89,NNW,348,0.0,0.0,62,0.00,CLR,,0.00,WeatherDisplay:10.37,2013-07-11 17:02:00,
2013-07-11 09:07:00,62.7,49.5,29.89,NNW,348,0.0,0.0,62,0.00,CLR,,0.00,WeatherDisplay:10.37,2013-07-11 17:07:00,
2013-07-11 09:12:00,62.9,49.7,29.89,NNW,348,0.0,0.0,62,0.00,CLR,,0.00,WeatherDisplay:10.37,2013-07-11 17:12:00,
2013-07-11 09:17:00,63.2,50.0,29.88,NNW,348,0.0,0.0,62,0.00,CLR,,0.00,WeatherDisplay:10.37,2013-07-11 17:17:00,
2013-07-11 09:22:00,63.5,49.8,29.88,NNW,348,0.0,0.0,61,0.00,CLR,,0.00,WeatherDisplay:10.37,2013-07-11 17:22:00,
2013-07-11 09:27:00,63.9,50.2,29.88,NNW,348,0.0,0.0,61,0.00,CLR,,0.00,WeatherDisplay:10.37,2013-07-11 17:27:00,
2013-07-11 09:32:00,64.2,50.5,29.88,NNW,348,0.0,0.0,61,0.00,CLR,,0.00,WeatherDisplay:10.37,2013-07-11 17:32:00,
2013-07-11 09:37:00,64.8,50.6,29.88,NNW,348,0.0,0.0,60,0.00,CLR,,0.00,WeatherDisplay:10.37,2013-07-11 17:37:00,
2013-07-11 09:42:00,65.4,50.7,29.88,NNW,348,0.0,0.0,59,0.00,CLR,,0.00,WeatherDisplay:10.37,2013-07-11 17:42:00,
2013-07-11 09:47:00,66.0,50.8,29.88,NNW,348,0.0,0.0,58,0.00,CLR,,0.00,WeatherDisplay:10.37,2013-07-11 17:47:00,
2013-07-11 09:52:00,66.5,49.8,29.88,NNW,348,0.0,0.0,55,0.00,CLR,,0.00,WeatherDisplay:10.37,2013-07-11 17:52:00,
2013-07-11 09:57:00,67.0,50.8,29.88,NNW,348,0.0,0.0,56,0.00,CLR,,0.00,WeatherDisplay:10.37,2013-07-11 17:57:00,
2013-07-11 10:02:00,67.3,50.1,29.88,NNW,348,0.0,0.0,54,0.00,CLR,,0.00,WeatherDisplay:10.37,2013-07-11 18:02:00,
2013-07-11 10:07:00,67.5,50.3,29.88,NNW,348,0.0,0.0,54,0.00,CLR,,0.00,WeatherDisplay:10.37,2013-07-11 18:07:00,
2013-07-11 10:12:00,67.8,49.5,29.88,NNW,348,0.0,0.0,52,0.00,CLR,,0.00,WeatherDisplay:10.37,2013-07-11 18:12:00,
2013-07-11 10:17:00,67.9,50.1,29.88,NNW,348,0.0,0.0,53,0.00,CLR,,0.00,WeatherDisplay:10.37,2013-07-11 18:17:00,
2013-07-11 10:22:00,68.1,50.3,29.88,NNW,348,0.0,0.0,53,0.00,CLR,,0.00,WeatherDisplay:10.37,2013-07-11 18:22:00,
2013-07-11 10:27:00,68.2,49.9,29.88,NNW,348,0.0,0.0,52,0.00,CLR,,0.00,WeatherDisplay:10.37,2013-07-11 18:27:00,
2013-07-11 10:32:00,68.3,50.0,29.88,NNW,348,0.0,0.0,52,0.00,CLR,,0.00,WeatherDisplay:10.37,2013-07-11 18:32:00,
2013-07-11 10:37:00,68.4,50.6,29.88,NNW,348,0.0,0.0,53,0.00,CLR,,0.00,WeatherDisplay:10.37,2013-07-11 18:37:00,
2013-07-11 10:42:00,68.6,50.3,29.88,NNW,348,0.0,0.0,52,0.00,CLR,,0.00,WeatherDisplay:10.37,2013-07-11 18:42:00,
2013-07-11 10:47:00,69.2,50.3,29.88,NNW,348,0.0,0.0,51,0.00,CLR,,0.00,WeatherDisplay:10.37,2013-07-11 18:47:00,
2013-07-11 10:52:00,69.0,53.1,29.88,NNW,348,0.0,0.0,57,0.00,CLR,,0.00,WeatherDisplay:10.37,2013-07-11 18:52:00,
2013-07-11 10:57:00,68.7,52.4,29.88,NNW,348,0.0,0.0,56,0.00,CLR,,0.00,WeatherDisplay:10.37,2013-07-11 18:57:00,
2013-07-11 11:02:00,68.5,52.2,29.88,NNW,348,0.0,0.0,56,0.00,CLR,,0.00,WeatherDisplay:10.37,2013-07-11 19:02:00,
2013-07-11 11:07:00,68.0,52.7,29.88,NNW,348,0.0,0.0,58,0.00,CLR,,0.00,WeatherDisplay:10.37,2013-07-11 19:07:00,
2013-07-11 11:12:00,67.6,52.3,29.88,NNW,348,0.0,0.0,58,0.00,CLR,,0.00,WeatherDisplay:10.37,2013-07-11 19:12:00,
2013-07-11 11:17:00,67.4,52.6,29.88,NNW,348,0.0,0.0,59,0.00,CLR,,0.00,WeatherDisplay:10.37,2013-07-11 19:17:00,
2013-07-11 11:22:00,67.2,52.8,29.88,NNW,348,0.0,0.0,60,0.00,CLR,,0.00,WeatherDisplay:10.37,2013-07-11 19:22:00,
2013-07-11 11:27:00,67.1,52.3,29.88,NNW,348,0.0,0.0,59,0.00,CLR,,0.00,WeatherDisplay:10.37,2013-07-11 19:27:00,
2013-07-11 11:32:00,67.1,52.7,29.88,NNW,348,0.0,0.0,60,0.00,CLR,,0.00,WeatherDisplay:10.37,2013-07-11 19:32:00,
2013-07-11 11:37:00,67.4,53.0,29.88,NNW,348,0.0,0.0,60,0.00,CLR,,0.00,WeatherDisplay:10.37,2013-07-11 19:37:00,
2013-07-11 11:42:00,67.4,53.0,29.88,NNW,348,0.0,0.0,60,0.00,CLR,,0.00,WeatherDisplay:10.37,2013-07-11 19:42:00,
2013-07-11 11:47:00,67.3,52.9,29.88,NNW,348,0.0,0.0,60,0.00,CLR,,0.00,WeatherDisplay:10.37,2013-07-11 19:47:00,
2013-07-11 11:52:00,67.0,52.7,29.88,NNW,348,0.0,0.0,60,0.00,CLR,,0.00,WeatherDisplay:10.37,2013-07-11 19:52:00,
2013-07-11 11:57:00,66.8,52.5,29.88,NNW,348,0.0,0.0,60,0.00,CLR,,0.00,WeatherDisplay:10.37,2013-07-11 19:57:00,
2013-07-11 12:02:00,66.9,52.1,29.88,NNW,348,0.0,0.0,59,0.00,CLR,,0.00,WeatherDisplay:10.37,2013-07-11 20:02:00,
2013-07-11 12:07:00,66.8,52.5,29.88,NNW,348,0.0,0.0,60,0.00,CLR,,0.00,WeatherDisplay:10.37,2013-07-11 20:07:00,
2013-07-11 12:12:00,66.7,53.3,29.88,NNW,348,0.0,0.0,62,0.00,CLR,,0.00,WeatherDisplay:10.37,2013-07-11 20:12:00,
2013-07-11 12:17:00,66.8,52.9,29.88,NNW,348,0.0,0.0,61,0.00,CLR,,0.00,WeatherDisplay:10.37,2013-07-11 20:17:00,
2013-07-11 12:22:00,66.8,52.9,29.89,NNW,348,0.0,0.0,61,0.00,CLR,,0.00,WeatherDisplay:10.37,2013-07-11 20:22:00,
2013-07-11 12:27:00,67.0,53.1,29.88,NNW,348,0.0,0.0,61,0.00,CLR,,0.00,WeatherDisplay:10.37,2013-07-11 20:27:00,
2013-07-11 12:32:00,67.2,52.8,29.88,NNW,348,0.0,0.0,60,0.00,CLR,,0.00,WeatherDisplay:10.37,2013-07-11 20:32:00,
2013-07-11 12:37:00,67.3,53.4,29.89,NNW,348,0.0,0.0,61,0.00,CLR,,0.00,WeatherDisplay:10.37,2013-07-11 20:37:00,
2013-07-11 12:42:00,67.6,53.2,29.89,NNW,348,0.0,0.0,60,0.00,CLR,,0.00,WeatherDisplay:10.37,2013-07-11 20:42:00,
2013-07-11 12:47:00,67.8,52.9,29.89,NNW,348,0.0,0.0,59,0.00,CLR,,0.00,WeatherDisplay:10.37,2013-07-11 20:47:00,
2013-07-11 12:52:00,68.1,51.8,29.88,NNW,348,0.0,0.0,56,0.00,CLR,,0.00,WeatherDisplay:10.37,2013-07-11 20:52:00,
2013-07-11 12:57:00,68.5,52.7,29.88,NNW,348,0.0,0.0,57,0.00,CLR,,0.00,WeatherDisplay:10.37,2013-07-11 20:57:00,
2013-07-11 13:02:00,68.8,53.4,29.89,NNW,348,0.0,0.0,58,0.00,CLR,,0.00,WeatherDisplay:10.37,2013-07-11 21:02:00,
2013-07-11 13:07:00,69.0,52.2,29.89,NNW,348,0.0,0.0,55,0.00,CLR,,0.00,WeatherDisplay:10.37,2013-07-11 21:07:00,
2013-07-11 13:12:00,69.2,51.8,29.89,NNW,348,0.0,0.0,54,0.00,CLR,,0.00,WeatherDisplay:10.37,2013-07-11 21:12:00,
2013-07-11 13:17:00,69.6,52.2,29.89,NNW,348,0.0,0.0,54,0.00,CLR,,0.00,WeatherDisplay:10.37,2013-07-11 21:17:00,
2013-07-11 13:22:00,69.9,51.5,29.89,NNW,348,0.0,0.0,52,0.00,CLR,,0.00,WeatherDisplay:10.37,2013-07-11 21:22:00,
2013-07-11 13:27:00,70.0,51.6,29.89,NNW,347,0.0,0.0,52,0.00,CLR,,0.00,WeatherDisplay:10.37,2013-07-11 21:27:00,
2013-07-11 13:33:00,70.2,52.3,29.89,NNW,347,0.0,0.0,53,0.00,CLR,,0.00,WeatherDisplay:10.37,2013-07-11 21:33:00,
2013-07-11 13:37:00,70.5,52.0,29.89,NNW,347,0.0,0.0,52,0.00,CLR,,0.00,WeatherDisplay:10.37,2013-07-11 21:37:00,
2013-07-11 13:42:00,70.7,52.7,29.89,NNW,348,0.0,0.0,53,0.00,CLR,,0.00,WeatherDisplay:10.37,2013-07-11 21:42:00,
2013-07-11 13:47:00,71.1,52.0,29.89,NNW,348,0.0,0.0,51,0.00,CLR,,0.00,WeatherDisplay:10.37,2013-07-11 21:47:00,
2013-07-11 13:53:00,71.6,52.5,29.89,NNW,348,0.0,0.0,51,0.00,CLR,,0.00,WeatherDisplay:10.37,2013-07-11 21:53:00,
2013-07-11 13:58:00,71.7,52.1,29.89,NNW,347,0.0,0.0,50,0.00,CLR,,0.00,WeatherDisplay:10.37,2013-07-11 21:58:00,
2013-07-11 14:03:00,71.6,51.4,29.89,NNW,347,0.0,0.0,49,0.00,CLR,,0.00,WeatherDisplay:10.37,2013-07-11 22:03:00,
2013-07-11 14:08:00,71.6,52.0,29.89,NNW,347,0.0,0.0,50,0.00,CLR,,0.00,WeatherDisplay:10.37,2013-07-11 22:08:00,
2013-07-11 14:13:00,71.7,52.6,29.89,NNW,347,0.0,0.0,51,0.00,CLR,,0.00,WeatherDisplay:10.37,2013-07-11 22:13:00,
2013-07-11 14:18:00,71.8,52.2,29.89,NNW,347,0.0,0.0,50,0.00,CLR,,0.00,WeatherDisplay:10.37,2013-07-11 22:18:00,
2013-07-11 14:23:00,71.9,51.7,29.89,NNW,347,0.0,0.0,49,0.00,CLR,,0.00,WeatherDisplay:10.37,2013-07-11 22:23:00,
2013-07-11 14:28:00,71.9,52.2,29.89,NNW,347,0.0,0.0,50,0.00,CLR,,0.00,WeatherDisplay:10.37,2013-07-11 22:28:00,
2013-07-11 14:33:00,71.9,51.1,29.89,NNW,347,0.0,0.0,48,0.00,CLR,,0.00,WeatherDisplay:10.37,2013-07-11 22:33:00,
2013-07-11 14:38:00,71.4,51.2,29.89,NNW,347,0.0,0.0,49,0.00,CLR,,0.00,WeatherDisplay:10.37,2013-07-11 22:38:00,
2013-07-11 14:43:00,71.1,51.5,29.89,NNW,347,0.0,0.0,50,0.00,CLR,,0.00,WeatherDisplay:10.37,2013-07-11 22:43:00,
2013-07-11 14:48:00,71.2,51.1,29.89,NNW,347,0.0,0.0,49,0.00,CLR,,0.00,WeatherDisplay:10.37,2013-07-11 22:48:00,
2013-07-11 14:53:00,71.4,52.3,29.89,NNW,347,0.0,0.0,51,0.00,CLR,,0.00,WeatherDisplay:10.37,2013-07-11 22:53:00,
2013-07-11 14:58:00,71.6,50.9,29.89,NNW,347,0.0,0.0,48,0.00,CLR,,0.00,WeatherDisplay:10.37,2013-07-11 22:58:00,
2013-07-11 15:03:00,71.7,51.5,29.89,NNW,347,0.0,0.0,49,0.00,CLR,,0.00,WeatherDisplay:10.37,2013-07-11 23:03:00,
2013-07-11 15:08:00,72.1,51.9,29.89,NNW,347,0.0,0.0,49,0.00,CLR,,0.00,WeatherDisplay:10.37,2013-07-11 23:08:00,
2013-07-11 15:13:00,72.4,51.6,29.89,NNW,347,0.0,0.0,48,0.00,CLR,,0.00,WeatherDisplay:10.37,2013-07-11 23:13:00,
2013-07-11 15:18:00,72.6,51.2,29.89,NNW,347,0.0,0.0,47,0.00,CLR,,0.00,WeatherDisplay:10.37,2013-07-11 23:18:00,
2013-07-11 15:23:00,72.5,51.1,29.89,NNW,347,0.0,0.0,47,0.00,CLR,,0.00,WeatherDisplay:10.37,2013-07-11 23:23:00,
2013-07-11 15:28:00,72.3,50.4,29.89,NNW,347,0.0,0.0,46,0.00,CLR,,0.00,WeatherDisplay:10.37,2013-07-11 23:28:00,
2013-07-11 15:33:00,72.3,51.5,29.89,NNW,347,0.0,0.0,48,0.00,CLR,,0.00,WeatherDisplay:10.37,2013-07-11 23:33:00,
2013-07-11 15:38:00,72.7,51.3,29.89,NNW,347,0.0,0.0,47,0.00,CLR,,0.00,WeatherDisplay:10.37,2013-07-11 23:38:00,
2013-07-11 15:43:00,72.7,51.9,29.89,NNW,347,0.0,0.0,48,0.00,CLR,,0.00,WeatherDisplay:10.37,2013-07-11 23:43:00,
2013-07-11 15:48:00,72.5,51.1,29.89,NNW,347,0.0,0.0,47,0.00,CLR,,0.00,WeatherDisplay:10.37,2013-07-11 23:48:00,
2013-07-11 15:53:00,72.3,51.5,29.89,NNW,348,0.0,0.0,48,0.00,CLR,,0.00,WeatherDisplay:10.37,2013-07-11 23:53:00,
2013-07-11 15:58:00,72.6,51.2,29.89,NNW,348,0.0,0.0,47,0.00,CLR,,0.00,WeatherDisplay:10.37,2013-07-11 23:58:00,
2013-07-11 16:03:00,72.8,51.4,29.89,NNW,348,0.0,0.0,47,0.00,CLR,,0.00,WeatherDisplay:10.37,2013-07-12 00:03:00,
2013-07-11 16:08:00,72.4,50.4,29.89,NNW,348,0.0,0.0,46,0.00,CLR,,0.00,WeatherDisplay:10.37,2013-07-12 00:08:00,
2013-07-11 16:13:00,72.1,51.3,29.89,NNW,348,0.0,0.0,48,0.00,CLR,,0.00,WeatherDisplay:10.37,2013-07-12 00:13:00,
2013-07-11 16:18:00,71.9,51.1,29.89,NNW,347,0.0,0.0,48,0.00,CLR,,0.00,WeatherDisplay:10.37,2013-07-12 00:18:00,
2013-07-11 16:23:00,71.9,51.7,29.89,NNW,347,0.0,0.0,49,0.00,CLR,,0.00,WeatherDisplay:10.37,2013-07-12 00:23:00,
2013-07-11 16:28:00,72.1,51.9,29.89,NNW,347,0.0,0.0,49,0.00,CLR,,0.00,WeatherDisplay:10.37,2013-07-12 00:28:00,
2013-07-11 16:33:00,72.3,51.5,29.89,NNW,347,0.0,0.0,48,0.00,CLR,,0.00,WeatherDisplay:10.37,2013-07-12 00:33:00,
2013-07-11 16:38:00,72.4,51.6,29.89,NNW,347,0.0,0.0,48,0.00,CLR,,0.00,WeatherDisplay:10.37,2013-07-12 00:38:00,
2013-07-11 16:43:00,72.4,52.2,29.89,NNW,347,0.0,0.0,49,0.00,CLR,,0.00,WeatherDisplay:10.37,2013-07-12 00:43:00,
2013-07-11 16:48:00,72.5,51.7,29.89,NNW,347,0.0,0.0,48,0.00,CLR,,0.00,WeatherDisplay:10.37,2013-07-12 00:48:00,
2013-07-11 16:53:00,72.3,50.9,29.89,NNW,348,0.0,0.0,47,0.00,CLR,,0.00,WeatherDisplay:10.37,2013-07-12 00:53:00,
2013-07-11 16:58:00,72.2,51.4,29.89,NNW,348,0.0,0.0,48,0.00,CLR,,0.00,WeatherDisplay:10.37,2013-07-12 00:58:00,
2013-07-11 17:03:00,72.4,52.2,29.89,NNW,348,0.0,0.0,49,0.00,CLR,,0.00,WeatherDisplay:10.37,2013-07-12 01:03:00,
2013-07-11 17:08:00,72.8,52.5,29.89,NNW,347,0.0,0.0,49,0.00,CLR,,0.00,WeatherDisplay:10.37,2013-07-12 01:08:00,
2013-07-11 17:13:00,72.8,52.0,29.89,NNW,347,0.0,0.0,48,0.00,CLR,,0.00,WeatherDisplay:10.37,2013-07-12 01:13:00,
2013-07-11 17:18:00,72.8,52.0,29.89,NNW,347,0.0,0.0,48,0.00,CLR,,0.00,WeatherDisplay:10.37,2013-07-12 01:18:00,
2013-07-11 17:23:00,72.7,51.3,29.89,NNW,347,0.0,0.0,47,0.00,CLR,,0.00,WeatherDisplay:10.37,2013-07-12 01:23:00,
2013-07-11 17:28:00,72.6,51.2,29.89,NNW,347,0.0,0.0,47,0.00,CLR,,0.00,WeatherDisplay:10.37,2013-07-12 01:28:00,
2013-07-11 17:33:00,72.5,51.1,29.89,NNW,347,0.0,0.0,47,0.00,CLR,,0.00,WeatherDisplay:10.37,2013-07-12 01:33:00,
2013-07-11 17:38:00,71.8,51.0,29.89,NNW,347,0.0,0.0,48,0.00,CLR,,0.00,WeatherDisplay:10.37,2013-07-12 01:38:00,
2013-07-11 17:43:00,71.6,51.4,29.89,NNW,347,0.0,0.0,49,0.00,CLR,,0.00,WeatherDisplay:10.37,2013-07-12 01:43:00,
2013-07-11 17:48:00,71.7,51.5,29.89,NNW,347,0.0,0.0,49,0.00,CLR,,0.00,WeatherDisplay:10.37,2013-07-12 01:48:00,
2013-07-11 17:53:00,71.6,51.4,29.89,NNW,347,0.0,0.0,49,0.00,CLR,,0.00,WeatherDisplay:10.37,2013-07-12 01:53:00,
2013-07-11 17:58:00,71.8,51.6,29.89,NNW,347,0.0,0.0,49,0.00,CLR,,0.00,WeatherDisplay:10.37,2013-07-12 01:58:00,
2013-07-11 18:03:00,71.9,51.7,29.90,NNW,347,0.0,0.0,49,0.00,CLR,,0.00,WeatherDisplay:10.37,2013-07-12 02:03:00,
2013-07-11 18:08:00,72.0,51.8,29.90,NNW,347,0.0,0.0,49,0.00,CLR,,0.00,WeatherDisplay:10.37,2013-07-12 02:08:00,
2013-07-11 18:13:00,72.0,52.3,29.89,NNW,347,0.0,0.0,50,0.00,CLR,,0.00,WeatherDisplay:10.37,2013-07-12 02:13:00,
2013-07-11 18:18:00,72.2,52.0,29.89,NNW,347,0.0,0.0,49,0.00,CLR,,0.00,WeatherDisplay:10.37,2013-07-12 02:18:00,
2013-07-11 18:23:00,72.1,51.9,29.89,NNW,347,0.0,0.0,49,0.00,CLR,,0.00,WeatherDisplay:10.37,2013-07-12 02:23:00,
2013-07-11 18:28:00,72.0,52.3,29.89,NNW,347,0.0,0.0,50,0.00,CLR,,0.00,WeatherDisplay:10.37,2013-07-12 02:28:00,
2013-07-11 18:33:00,71.9,52.2,29.89,NNW,347,0.0,0.0,50,0.00,CLR,,0.00,WeatherDisplay:10.37,2013-07-12 02:33:00,
2013-07-11 18:38:00,71.9,51.7,29.89,NNW,347,0.0,0.0,49,0.00,CLR,,0.00,WeatherDisplay:10.37,2013-07-12 02:38:00,
2013-07-11 18:43:00,71.7,51.5,29.89,NNW,347,0.0,0.0,49,0.00,CLR,,0.00,WeatherDisplay:10.37,2013-07-12 02:43:00,
2013-07-11 18:48:00,71.3,52.2,29.90,NNW,347,0.0,0.0,51,0.00,CLR,,0.00,WeatherDisplay:10.37,2013-07-12 02:48:00,
2013-07-11 18:53:00,71.1,51.5,29.89,NNW,347,0.0,0.0,50,0.00,CLR,,0.00,WeatherDisplay:10.37,2013-07-12 02:53:00,
2013-07-11 18:58:00,70.7,51.7,29.89,NNW,347,0.0,0.0,51,0.00,CLR,,0.00,WeatherDisplay:10.37,2013-07-12 02:58:00,
2013-07-11 19:03:00,70.3,51.8,29.89,NNW,347,0.0,0.0,52,0.00,CLR,,0.00,WeatherDisplay:10.37,2013-07-12 03:03:00,
2013-07-11 19:08:00,70.1,51.1,29.89,NNW,347,0.0,0.0,51,0.00,CLR,,0.00,WeatherDisplay:10.37,2013-07-12 03:08:00,
2013-07-11 19:13:00,69.7,51.3,29.89,NNW,347,0.0,0.0,52,0.00,CLR,,0.00,WeatherDisplay:10.37,2013-07-12 03:13:00,
2013-07-11 19:18:00,69.4,51.5,29.89,NNW,347,0.0,0.0,53,0.00,CLR,,0.00,WeatherDisplay:10.37,2013-07-12 03:18:00,
2013-07-11 19:23:00,68.9,51.6,29.89,NNW,347,0.0,0.0,54,0.00,CLR,,0.00,WeatherDisplay:10.37,2013-07-12 03:23:00,
2013-07-11 19:28:00,68.4,51.1,29.89,NNW,347,0.0,0.0,54,0.00,CLR,,0.00,WeatherDisplay:10.37,2013-07-12 03:28:00,
2013-07-11 19:33:00,67.9,51.1,29.90,NNW,347,0.0,0.0,55,0.00,CLR,,0.00,WeatherDisplay:10.37,2013-07-12 03:33:00,
2013-07-11 19:38:00,67.5,50.8,29.90,NNW,347,0.0,0.0,55,0.00,CLR,,0.00,WeatherDisplay:10.37,2013-07-12 03:38:00,
2013-07-11 19:43:00,67.1,50.9,29.90,NNW,347,0.0,0.0,56,0.00,CLR,,0.00,WeatherDisplay:10.37,2013-07-12 03:43:00,
2013-07-11 19:48:00,66.8,50.6,29.90,NNW,347,0.0,0.0,56,0.00,CLR,,0.00,WeatherDisplay:10.37,2013-07-12 03:48:00,
2013-07-11 19:53:00,66.6,50.9,29.90,NNW,347,0.0,0.0,57,0.00,CLR,,0.00,WeatherDisplay:10.37,2013-07-12 03:53:00,
2013-07-11 19:58:00,66.6,51.4,29.90,NNW,347,0.0,0.0,58,0.00,CLR,,0.00,WeatherDisplay:10.37,2013-07-12 03:58:00,
2013-07-11 20:01:00,66.6,50.9,29.90,NNW,347,0.0,0.0,57,0.00,CLR,,0.00,WeatherDisplay:10.37,2013-07-12 04:01:00,
2013-07-11 20:06:00,66.5,50.8,29.90,NNW,347,0.0,0.0,57,0.00,CLR,,0.00,WeatherDisplay:10.37,2013-07-12 04:06:00,
2013-07-11 20:11:00,66.5,51.3,29.90,NNW,347,0.0,0.0,58,0.00,CLR,,0.00,WeatherDisplay:10.37,2013-07-12 04:11:00,
2013-07-11 20:16:00,66.2,51.4,29.90,NNW,347,0.0,0.0,59,0.00,CLR,,0.00,WeatherDisplay:10.37,2013-07-12 04:16:00,
2013-07-11 20:21:00,65.9,52.1,29.90,NNW,347,0.0,0.0,61,0.00,CLR,,0.00,WeatherDisplay:10.37,2013-07-12 04:21:00,
2013-07-11 20:26:00,65.6,52.7,29.90,NNW,347,0.0,0.0,63,0.00,CLR,,0.00,WeatherDisplay:10.37,2013-07-12 04:26:00,
2013-07-11 20:31:00,65.1,52.2,29.90,NNW,347,0.0,0.0,63,0.00,CLR,,0.00,WeatherDisplay:10.37,2013-07-12 04:31:00,
2013-07-11 20:36:00,64.8,51.9,29.90,NNW,347,0.0,0.0,63,0.00,CLR,,0.00,WeatherDisplay:10.37,2013-07-12 04:36:00,
2013-07-11 20:41:00,64.5,52.0,29.90,NNW,347,0.0,0.0,64,0.00,CLR,,0.00,WeatherDisplay:10.37,2013-07-12 04:41:00,
2013-07-11 20:46:00,64.1,52.1,29.90,NNW,347,0.0,0.0,65,0.00,CLR,,0.00,WeatherDisplay:10.37,2013-07-12 04:46:00,
2013-07-11 20:51:00,63.8,52.6,29.90,NNW,347,0.0,0.0,67,0.00,CLR,,0.00,WeatherDisplay:10.37,2013-07-12 04:51:00,
2013-07-11 20:56:00,63.3,52.2,29.91,NNW,347,0.0,0.0,67,0.00,CLR,,0.00,WeatherDisplay:10.37,2013-07-12 04:56:00,
2013-07-11 21:01:00,62.9,52.2,29.91,NNW,347,0.0,0.0,68,0.00,CLR,,0.00,WeatherDisplay:10.37,2013-07-12 05:01:00,
2013-07-11 21:06:00,62.6,52.3,29.91,NNW,347,0.0,0.0,69,0.00,CLR,,0.00,WeatherDisplay:10.37,2013-07-12 05:06:00,
2013-07-11 21:11:00,62.3,52.4,29.91,NNW,347,0.0,0.0,70,0.00,CLR,,0.00,WeatherDisplay:10.37,2013-07-12 05:11:00,
2013-07-11 21:16:00,61.8,52.3,29.91,NNW,347,0.0,0.0,71,0.00,CLR,,0.00,WeatherDisplay:10.37,2013-07-12 05:16:00,
2013-07-11 21:21:00,61.3,52.9,29.91,NNW,347,0.0,0.0,74,0.00,CLR,,0.00,WeatherDisplay:10.37,2013-07-12 05:21:00,
2013-07-11 21:26:00,61.0,52.7,29.91,NNW,347,0.0,0.0,74,0.00,CLR,,0.00,WeatherDisplay:10.37,2013-07-12 05:26:00,
2013-07-11 21:31:00,60.4,52.1,29.91,NNW,347,0.0,0.0,74,0.00,CLR,,0.00,WeatherDisplay:10.37,2013-07-12 05:31:00,
2013-07-11 21:36:00,60.1,51.8,29.91,NNW,347,0.0,0.0,74,0.00,CLR,,0.00,WeatherDisplay:10.37,2013-07-12 05:36:00,
2013-07-11 21:41:00,59.8,51.5,29.91,NNW,347,0.0,0.0,74,0.00,CLR,,0.00,WeatherDisplay:10.37,2013-07-12 05:41:00,
2013-07-11 21:46:00,59.6,51.7,29.91,NNW,347,0.0,0.0,75,0.00,CLR,,0.00,WeatherDisplay:10.37,2013-07-12 05:46:00,
2013-07-11 21:51:00,59.4,51.1,29.91,NNW,347,0.0,0.0,74,0.00,CLR,,0.00,WeatherDisplay:10.37,2013-07-12 05:51:00,
2013-07-11 21:56:00,59.5,51.6,29.91,NNW,347,0.0,0.0,75,0.00,CLR,,0.00,WeatherDisplay:10.37,2013-07-12 05:56:00,
2013-07-11 22:01:00,59.2,51.3,29.91,NNW,347,0.0,0.0,75,0.00,CLR,,0.00,WeatherDisplay:10.37,2013-07-12 06:01:00,
2013-07-11 22:06:00,59.0,51.1,29.91,NNW,347,0.0,0.0,75,0.00,CLR,,0.00,WeatherDisplay:10.37,2013-07-12 06:06:00,
2013-07-11 22:11:00,59.2,51.3,29.91,NNW,347,0.0,0.0,75,0.00,CLR,,0.00,WeatherDisplay:10.37,2013-07-12 06:11:00,
2013-07-11 22:16:00,59.0,51.1,29.91,NNW,347,0.0,0.0,75,0.00,CLR,,0.00,WeatherDisplay:10.37,2013-07-12 06:16:00,
2013-07-11 22:21:00,58.7,51.2,29.91,NNW,347,0.0,0.0,76,0.00,CLR,,0.00,WeatherDisplay:10.37,2013-07-12 06:21:00,
2013-07-11 22:26:00,58.4,50.5,29.91,NNW,347,0.0,0.0,75,0.00,CLR,,0.00,WeatherDisplay:10.37,2013-07-12 06:26:00,
2013-07-11 22:31:00,58.3,50.4,29.91,NNW,347,0.0,0.0,75,0.00,CLR,,0.00,WeatherDisplay:10.37,2013-07-12 06:31:00,
2013-07-11 22:36:00,58.2,50.3,29.91,NNW,347,0.0,0.0,75,0.00,CLR,,0.00,WeatherDisplay:10.37,2013-07-12 06:36:00,
2013-07-11 22:41:00,58.2,50.3,29.91,NNW,347,0.0,0.0,75,0.00,CLR,,0.00,WeatherDisplay:10.37,2013-07-12 06:41:00,
2013-07-11 22:46:00,58.2,50.3,29.91,NNW,347,0.0,0.0,75,0.00,CLR,,0.00,WeatherDisplay:10.37,2013-07-12 06:46:00,
2013-07-11 22:51:00,58.4,50.5,29.91,NNW,347,0.0,0.0,75,0.00,CLR,,0.00,WeatherDisplay:10.37,2013-07-12 06:51:00,
2013-07-11 22:56:00,58.5,50.6,29.91,NNW,347,0.0,0.0,75,0.00,CLR,,0.00,WeatherDisplay:10.37,2013-07-12 06:56:00,
2013-07-11 23:01:00,58.4,50.5,29.91,NNW,347,0.0,0.0,75,0.00,CLR,,0.00,WeatherDisplay:10.37,2013-07-12 07:01:00,
2013-07-11 23:06:00,58.4,50.5,29.91,NNW,347,0.0,0.0,75,0.00,CLR,,0.00,WeatherDisplay:10.37,2013-07-12 07:06:00,
2013-07-11 23:11:00,58.1,50.2,29.91,NNW,347,0.0,0.0,75,0.00,CLR,,0.00,WeatherDisplay:10.37,2013-07-12 07:11:00,
2013-07-11 23:16:00,58.2,50.3,29.91,NNW,347,0.0,0.0,75,0.00,CLR,,0.00,WeatherDisplay:10.37,2013-07-12 07:16:00,
2013-07-11 23:21:00,58.2,50.7,29.91,NNW,347,0.0,0.0,76,0.00,CLR,,0.00,WeatherDisplay:10.37,2013-07-12 07:21:00,
2013-07-11 23:26:00,57.9,50.4,29.91,NNW,347,0.0,0.0,76,0.00,CLR,,0.00,WeatherDisplay:10.37,2013-07-12 07:26:00,
2013-07-11 23:31:00,57.3,50.5,29.92,NNW,347,0.0,0.0,78,0.00,CLR,,0.00,WeatherDisplay:10.37,2013-07-12 07:31:00,
2013-07-11 23:36:00,56.6,50.2,29.92,NNW,347,0.0,0.0,79,0.00,CLR,,0.00,WeatherDisplay:10.37,2013-07-12 07:36:00,
2013-07-11 23:41:00,56.4,50.0,29.92,NNW,347,0.0,0.0,79,0.00,CLR,,0.00,WeatherDisplay:10.37,2013-07-12 07:41:00,
2013-07-11 23:46:00,56.7,49.9,29.92,NNW,347,0.0,0.0,78,0.00,CLR,,0.00,WeatherDisplay:10.37,2013-07-12 07:46:00,
2013-07-11 23:51:00,56.8,50.0,29.92,NNW,347,0.0,0.0,78,0.00,CLR,,0.00,WeatherDisplay:10.37,2013-07-12 07:51:00,
2013-07-11 23:56:00,56.7,49.9,29.92,NNW,347,0.0,0.0,78,0.00,CLR,,0.00,WeatherDisplay:10.37,2013-07-12 07:56:00,